Tracking 27401 objects as of 3-Jun-2023
HD Live streaming from Space Station
objects crossing your sky now

STARLINK-1265

Track STARLINK-1265 now!
10-day predictions
STARLINK-1265 is classified as:


NORAD ID: 45406
Int'l Code: 2020-019AY
Perigee: 553.6 km
Apogee: 555.1 km
Inclination: 53.1 °
Period: 95.6 minutes
Semi major axis: 6925 km
RCS: Unknown
Launch date: March 18, 2020
Source: United States (US)
Launch site: AIR FORCE EASTERN TEST RANGE (AFETR)
Your satellite tracking list
Your tracking list is empty




NASA's NSSDC Master Catalog

Two Line Element Set (TLE):
1 45406U 20019AY  23153.78174300 -.00000475  00000-0 -12981-4 0  9998
2 45406  53.0556 354.7604 0001027  64.9636 295.1459 15.06398635177497
Source of the keplerian elements: AFSPC